,,PA_Meas_PMT16A,,PR_Meas_QMR101_102,,RH_Meas_QMH101,,SR_Meas_QMS101,,TA_Meas_QMH101,,GenWind,,GenWind,
time,status,PA,status,PR,status,RH,status,SR,status,TA,status,DirAvg,status,SpdAvg,
2013-02-02, 00:00:04,VALID,918.694,VALID,0,VALID,85.7558,VALID,0.107441,VALID,21.3217,VALID,140,VALID,0,
2013-02-02, 00:01:04,VALID,918.717,VALID,0,VALID,85.8702,VALID,0,VALID,21.3217,VALID,136,VALID,0,
2013-02-02, 00:02:05,VALID,918.7,VALID,0,VALID,85.6643,VALID,0,VALID,21.3022,VALID,133,VALID,0,
2013-02-02, 00:03:05,VALID,918.717,VALID,0,VALID,85.611,VALID,0,VALID,21.3429,VALID,138,VALID,0,
2013-02-02, 00:04:04,VALID,918.721,VALID,0,VALID,85.5957,VALID,0,VALID,21.3412,VALID,168,VALID,0,
2013-02-02, 00:05:05,VALID,918.72,VALID,0,VALID,85.7482,VALID,0,VALID,21.3608,VALID,170,VALID,0,
2013-02-02, 00:06:05,VALID,918.719,VALID,0,VALID,85.6491,VALID,0,VALID,21.3624,VALID,175,VALID,0,
2013-02-02, 00:07:05,VALID,918.749,VALID,0,VALID,85.6948,VALID,0,VALID,21.3608,VALID,162,VALID,0,
2013-02-02, 00:08:05,VALID,918.731,VALID,0,VALID,85.6033,VALID,0,VALID,21.3412,VALID,144,VALID,0,
2013-02-02, 00:09:05,VALID,918.7,VALID,0,VALID,85.8244,VALID,0,VALID,21.3608,VALID,142,VALID,0,
2013-02-02, 00:10:05,VALID,918.685,VALID,0,VALID,85.7787,VALID,0.107441,VALID,21.3608,VALID,170,VALID,0,
2013-02-02, 00:11:05,VALID,918.668,VALID,0,VALID,86.0379,VALID,0,VALID,21.3819,VALID,179,VALID,0,
2013-02-02, 00:12:05,VALID,918.672,VALID,0,VALID,86.0303,VALID,0,VALID,21.3396,VALID,171,VALID,0,
2013-02-02, 00:13:05,VALID,918.645,VALID,0,VALID,86.2971,VALID,0,VALID,21.3217,VALID,171,VALID,0,
2013-02-02, 00:14:05,VALID,918.615,VALID,0,VALID,86.3504,VALID,0,VALID,21.3217,VALID,174,VALID,0,
2013-02-02, 00:15:05,VALID,918.597,VALID,0,VALID,85.9388,VALID,0.107441,VALID,21.3022,VALID,172,VALID,0,
2013-02-02, 00:16:05,VALID,918.564,VALID,0,VALID,86.1827,VALID,0,VALID,21.3429,VALID,152,VALID,0,
2013-02-02, 00:17:05,VALID,918.555,VALID,0,VALID,86.1751,VALID,0,VALID,21.3217,VALID,159,VALID,0,
2013-02-02, 00:18:05,VALID,918.545,VALID,0,VALID,86.0989,VALID,0,VALID,21.3022,VALID,157,VALID,0,
2013-02-02, 00:19:05,VALID,918.529,VALID,0,VALID,86.1827,VALID,0,VALID,21.3022,VALID,169,VALID,0,
2013-02-02, 00:20:05,VALID,918.499,VALID,0,VALID,86.0912,VALID,0,VALID,21.3217,VALID,167,VALID,0,
2013-02-02, 00:21:05,VALID,918.48,VALID,0,VALID,86.4343,VALID,0,VALID,21.3217,VALID,174,VALID,0,
2013-02-02, 00:22:05,VALID,918.452,VALID,0,VALID,86.6096,VALID,0,VALID,21.2827,VALID,147,VALID,0,
2013-02-02, 00:23:05,VALID,918.451,VALID,0,VALID,86.4953,VALID,0,VALID,21.2632,VALID,168,VALID,0,
2013-02-02, 00:24:05,VALID,918.414,VALID,0,VALID,86.4495,VALID,0,VALID,21.2827,VALID,157,VALID,0,
2013-02-02, 00:25:05,VALID,918.439,VALID,0,VALID,86.0989,VALID,0,VALID,21.3022,VALID,147,VALID,0,
2013-02-02, 00:26:05,VALID,918.414,VALID,0,VALID,85.9464,VALID,0,VALID,21.3412,VALID,165,VALID,0,
2013-02-02, 00:27:05,VALID,918.385,VALID,0,VALID,86.0836,VALID,0,VALID,21.3217,VALID,171,VALID,0,
2013-02-02, 00:28:05,VALID,918.4,VALID,0,VALID,86.3123,VALID,0,VALID,21.3429,VALID,162,VALID,0,
2013-02-02, 00:29:05,VALID,918.444,VALID,0,VALID,86.198,VALID,0,VALID,21.3234,VALID,169,VALID,0,
2013-02-02, 00:30:05,VALID,918.384,VALID,0,VALID,86.3809,VALID,0,VALID,21.3022,VALID,136,VALID,0,
2013-02-02, 00:31:05,VALID,918.417,VALID,0,VALID,86.419,VALID,0,VALID,21.3038,VALID,152,VALID,0,
2013-02-02, 00:32:05,VALID,918.394,VALID,0,VALID,86.7011,VALID,0,VALID,21.3234,VALID,168,VALID,0,
2013-02-02, 00:33:05,VALID,918.399,VALID,0,VALID,86.7164,VALID,0,VALID,21.3038,VALID,166,VALID,0,
2013-02-02, 00:34:05,VALID,918.385,VALID,0,VALID,86.7468,VALID,0,VALID,21.2827,VALID,169,VALID,0,
2013-02-02, 00:35:05,VALID,918.374,VALID,0,VALID,86.8155,VALID,0,VALID,21.3234,VALID,182,VALID,0,
2013-02-02, 00:36:05,VALID,918.376,VALID,0,VALID,87.0061,VALID,0,VALID,21.3038,VALID,181,VALID,0,
2013-02-02, 00:37:05,VALID,918.383,VALID,0,VALID,87.0899,VALID,0,VALID,21.2843,VALID,158,VALID,0,
2013-02-02, 00:38:05,VALID,918.342,VALID,0,VALID,87.1814,VALID,0,VALID,21.2827,VALID,140,VALID,0,
2013-02-02, 00:39:05,VALID,918.32,VALID,0,VALID,87.1204,VALID,0,VALID,21.2632,VALID,165,VALID,0,
2013-02-02, 00:40:05,VALID,918.329,VALID,0,VALID,87.2119,VALID,0,VALID,21.3022,VALID,157,VALID,0,
2013-02-02, 00:41:05,VALID,918.32,VALID,0,VALID,87.4787,VALID,0,VALID,21.2843,VALID,150,VALID,0,
2013-02-02, 00:42:05,VALID,918.312,VALID,0,VALID,87.5854,VALID,0,VALID,21.2843,VALID,137,VALID,0,
2013-02-02, 00:43:05,VALID,918.289,VALID,0,VALID,87.2652,VALID,0,VALID,21.2632,VALID,135,VALID,0,
2013-02-02, 00:44:05,VALID,918.261,VALID,0,VALID,87.2805,VALID,0,VALID,21.2632,VALID,129,VALID,0,
2013-02-02, 00:45:05,VALID,918.19,VALID,0,VALID,87.4787,VALID,0,VALID,21.2632,VALID,151,VALID,0,
2013-02-02, 00:46:05,VALID,918.16,VALID,0,VALID,87.3567,VALID,0,VALID,21.2632,VALID,155,VALID,0,
2013-02-02, 00:47:05,VALID,918.174,VALID,0,VALID,87.4558,VALID,0,VALID,21.2632,VALID,133,VALID,0.0117188,
2013-02-02, 00:48:05,VALID,918.115,VALID,0,VALID,87.6769,VALID,0,VALID,21.2648,VALID,126,VALID,0,
2013-02-02, 00:49:05,VALID,918.1,VALID,0,VALID,87.8446,VALID,0,VALID,21.2453,VALID,125,VALID,0,
2013-02-02, 00:50:05,VALID,918.082,VALID,0,VALID,87.9513,VALID,0,VALID,21.2258,VALID,128,VALID,0,
2013-02-02, 00:51:05,VALID,918.08,VALID,0,VALID,87.9437,VALID,0,VALID,21.1852,VALID,134,VALID,0,
2013-02-02, 00:52:05,VALID,918.046,VALID,0,VALID,88.02,VALID,0,VALID,21.2063,VALID,111,VALID,0,
2013-02-02, 00:53:05,VALID,918.066,VALID,0,VALID,88.0505,VALID,0,VALID,21.2063,VALID,142,VALID,0,
2013-02-02, 00:54:05,VALID,918.077,VALID,0,VALID,88.0733,VALID,0,VALID,21.1852,VALID,163,VALID,0.096875,
2013-02-02, 00:55:05,VALID,918.085,VALID,0,VALID,88.0733,VALID,0,VALID,21.2047,VALID,122,VALID,0,
2013-02-02, 00:56:05,VALID,918.05,VALID,0,VALID,88.1114,VALID,0,VALID,21.2258,VALID,131,VALID,0,
2013-02-02, 00:57:05,VALID,918.045,VALID,0,VALID,88.0047,VALID,0,VALID,21.2063,VALID,137,VALID,0,
2013-02-02, 00:58:05,VALID,918.019,VALID,0,VALID,87.9285,VALID,0,VALID,21.2258,VALID,166,VALID,0.0632813,
2013-02-02, 00:59:05,VALID,918.019,VALID,0,VALID,87.9285,VALID,0,VALID,21.2047,VALID,152,VALID,0,
2013-02-02, 01:00:05,VALID,917.96,VALID,0,VALID,87.9818,VALID,0,VALID,21.2047,VALID,151,VALID,0,
2013-02-02, 01:01:05,VALID,917.989,VALID,0,VALID,88.0962,VALID,0,VALID,21.2258,VALID,134,VALID,0,
2013-02-02, 01:02:05,VALID,917.94,VALID,0,VALID,87.898,VALID,0,VALID,21.2258,VALID,125,VALID,0.286719,
2013-02-02, 01:03:05,VALID,917.931,VALID,0,VALID,88.1343,VALID,0,VALID,21.1657,VALID,166,VALID,0,
2013-02-02, 01:04:05,VALID,917.905,VALID,0,VALID,88.1343,VALID,0,VALID,21.2063,VALID,124,VALID,0,
2013-02-02, 01:05:05,VALID,917.893,VALID,0,VALID,87.9513,VALID,0,VALID,21.1461,VALID,134,VALID,0,
2013-02-02, 01:06:05,VALID,917.885,VALID,0,VALID,88.1038,VALID,0,VALID,21.1461,VALID,130,VALID,0,
2013-02-02, 01:07:05,VALID,917.888,VALID,0,VALID,88.241,VALID,0,VALID,21.1071,VALID,134,VALID,0,
2013-02-02, 01:08:05,VALID,917.901,VALID,0,VALID,88.3554,VALID,0,VALID,21.0876,VALID,118,VALID,0,
2013-02-02, 01:09:05,VALID,917.853,VALID,0,VALID,88.0428,VALID,0,VALID,21.0876,VALID,139,VALID,0.715234,
2013-02-02, 01:10:05,VALID,917.84,VALID,0,VALID,87.7226,VALID,0,VALID,21.1461,VALID,156,VALID,0,
2013-02-02, 01:11:05,VALID,917.863,VALID,0,VALID,87.6159,VALID,0,VALID,21.1868,VALID,140,VALID,0.00429688,
2013-02-02, 01:12:05,VALID,917.824,VALID,0,VALID,87.5702,VALID,0,VALID,21.2063,VALID,106,VALID,0,
2013-02-02, 01:13:05,VALID,917.817,VALID,0,VALID,87.5778,VALID,0,VALID,21.2047,VALID,147,VALID,0,
2013-02-02, 01:14:05,VALID,917.77,VALID,0,VALID,87.6235,VALID,0,VALID,21.2063,VALID,120,VALID,0,
2013-02-02, 01:15:05,VALID,917.765,VALID,0,VALID,87.2805,VALID,0,VALID,21.2047,VALID,149,VALID,0,
2013-02-02, 01:16:05,VALID,917.712,VALID,0,VALID,87.3643,VALID,0,VALID,21.1852,VALID,112,VALID,0,
2013-02-02, 01:17:05,VALID,917.674,VALID,0,VALID,87.189,VALID,0,VALID,21.1852,VALID,132,VALID,0,
2013-02-02, 01:18:05,VALID,917.709,VALID,0,VALID,87.0899,VALID,0,VALID,21.2047,VALID,102,VALID,0.0121094,
2013-02-02, 01:19:05,VALID,917.682,VALID,0,VALID,86.8002,VALID,0,VALID,21.2453,VALID,113,VALID,0,
2013-02-02, 01:20:05,VALID,917.671,VALID,0,VALID,86.7011,VALID,0,VALID,21.2437,VALID,132,VALID,0,
2013-02-02, 01:21:05,VALID,917.678,VALID,0,VALID,86.8002,VALID,0,VALID,21.2648,VALID,103,VALID,0,
2013-02-02, 01:22:05,VALID,917.665,VALID,0,VALID,86.5715,VALID,0,VALID,21.2437,VALID,113,VALID,0,
2013-02-02, 01:23:05,VALID,917.689,VALID,0,VALID,86.6172,VALID,0,VALID,21.2648,VALID,136,VALID,0,
2013-02-02, 01:24:05,VALID,917.714,VALID,0,VALID,86.3276,VALID,0,VALID,21.2827,VALID,146,VALID,0.202344,
2013-02-02, 01:25:05,VALID,917.688,VALID,0,VALID,86.5105,VALID,0,VALID,21.3038,VALID,172,VALID,0,
2013-02-02, 01:26:05,VALID,917.705,VALID,0,VALID,86.9451,VALID,0,VALID,21.2843,VALID,165,VALID,0,
2013-02-02, 01:27:05,VALID,917.722,VALID,0,VALID,87.0823,VALID,0,VALID,21.2258,VALID,190,VALID,0,
2013-02-02, 01:28:05,VALID,917.717,VALID,0,VALID,86.8993,VALID,0,VALID,21.2258,VALID,148,VALID,0,
2013-02-02, 01:29:05,VALID,917.71,VALID,0,VALID,86.7011,VALID,0.107441,VALID,21.2242,VALID,159,VALID,0.299609,
2013-02-02, 01:30:05,VALID,917.721,VALID,0,VALID,86.4038,VALID,0,VALID,21.2827,VALID,140,VALID,0.448828,
2013-02-02, 01:31:05,VALID,917.678,VALID,0,VALID,86.198,VALID,0,VALID,21.3022,VALID,160,VALID,0.280078,
2013-02-02, 01:32:05,VALID,917.678,VALID,0,VALID,86.1751,VALID,0,VALID,21.3217,VALID,141,VALID,0.355078,
2013-02-02, 01:33:05,VALID,917.68,VALID,0,VALID,86.198,VALID,0,VALID,21.3412,VALID,163,VALID,0.30625,
2013-02-02, 01:34:05,VALID,917.675,VALID,0,VALID,86.2666,VALID,0,VALID,21.3624,VALID,160,VALID,0.15625,
2013-02-02, 01:35:05,VALID,917.654,VALID,0,VALID,86.1141,VALID,0,VALID,21.3624,VALID,146,VALID,0.267188,
2013-02-02, 01:36:05,VALID,917.651,VALID,0,VALID,85.8397,VALID,0,VALID,21.3608,VALID,144,VALID,0.488672,
2013-02-02, 01:37:05,VALID,917.64,VALID,0,VALID,85.8778,VALID,0,VALID,21.4014,VALID,136,VALID,0.416016,
2013-02-02, 01:38:05,VALID,917.644,VALID,0,VALID,85.9921,VALID,0,VALID,21.4014,VALID,151,VALID,0,
2013-02-02, 01:39:05,VALID,917.589,VALID,0,VALID,86.1598,VALID,0,VALID,21.3412,VALID,133,VALID,0,
2013-02-02, 01:40:05,VALID,917.586,VALID,0,VALID,86.1522,VALID,0,VALID,21.3624,VALID,168,VALID,0,
2013-02-02, 01:41:05,VALID,917.559,VALID,0,VALID,86.2971,VALID,0,VALID,21.3412,VALID,161,VALID,0,
2013-02-02, 01:42:05,VALID,917.536,VALID,0,VALID,86.1827,VALID,0,VALID,21.3429,VALID,160,VALID,0.623438,
2013-02-02, 01:43:05,VALID,917.546,VALID,0,VALID,86.2971,VALID,0,VALID,21.3234,VALID,159,VALID,0.0179687,
2013-02-02, 01:44:05,VALID,917.509,VALID,0,VALID,86.3885,VALID,0,VALID,21.3038,VALID,169,VALID,0,
2013-02-02, 01:45:05,VALID,917.498,VALID,0,VALID,86.4343,VALID,0,VALID,21.2632,VALID,163,VALID,0,
2013-02-02, 01:46:05,VALID,917.461,VALID,0,VALID,86.4495,VALID,0,VALID,21.2437,VALID,171,VALID,0.272656,
2013-02-02, 01:47:05,VALID,917.502,VALID,0,VALID,86.4724,VALID,0,VALID,21.2632,VALID,160,VALID,0,
2013-02-02, 01:48:05,VALID,917.507,VALID,0,VALID,86.4648,VALID,0,VALID,21.2437,VALID,160,VALID,0,
2013-02-02, 01:49:05,VALID,917.485,VALID,0,VALID,86.4953,VALID,0,VALID,21.2437,VALID,124,VALID,0,
2013-02-02, 01:50:05,VALID,917.517,VALID,0,VALID,86.5105,VALID,0,VALID,21.2437,VALID,137,VALID,0,
2013-02-02, 01:51:05,VALID,917.501,VALID,0,VALID,86.7316,VALID,0,VALID,21.2437,VALID,160,VALID,0,
2013-02-02, 01:52:05,VALID,917.505,VALID,0,VALID,86.8078,VALID,0,VALID,21.2453,VALID,134,VALID,0,
2013-02-02, 01:53:05,VALID,917.51,VALID,0,VALID,86.9069,VALID,0,VALID,21.1852,VALID,137,VALID,0,
2013-02-02, 01:54:05,VALID,917.477,VALID,0,VALID,86.8612,VALID,0,VALID,21.1852,VALID,146,VALID,0,
2013-02-02, 01:55:05,VALID,917.446,VALID,0,VALID,86.9069,VALID,0,VALID,21.2063,VALID,157,VALID,0,
2013-02-02, 01:56:05,VALID,917.445,VALID,0,VALID,87.0365,VALID,0,VALID,21.1852,VALID,138,VALID,0,
2013-02-02, 01:57:05,VALID,917.41,VALID,0,VALID,87.0137,VALID,0,VALID,21.1657,VALID,178,VALID,0,
2013-02-02, 01:58:05,VALID,917.409,VALID,0,VALID,87.0442,VALID,0,VALID,21.1868,VALID,143,VALID,0,
2013-02-02, 01:59:05,VALID,917.362,VALID,0,VALID,86.9908,VALID,0,VALID,21.1461,VALID,130,VALID,0,
2013-02-02, 02:00:05,VALID,917.342,VALID,0,VALID,87.1509,VALID,0,VALID,21.1266,VALID,134,VALID,0,
2013-02-02, 02:01:05,VALID,917.315,VALID,0,VALID,87.128,VALID,0,VALID,21.1071,VALID,134,VALID,0,
2013-02-02, 02:02:05,VALID,917.345,VALID,0,VALID,87.2805,VALID,0,VALID,21.0876,VALID,135,VALID,0,
2013-02-02, 02:03:05,VALID,917.331,VALID,0,VALID,87.3415,VALID,0,VALID,21.0876,VALID,141,VALID,0,
2013-02-02, 02:04:05,VALID,917.362,VALID,0,VALID,87.3339,VALID,0,VALID,21.0876,VALID,133,VALID,0,
2013-02-02, 02:05:05,VALID,917.352,VALID,0,VALID,87.4177,VALID,0,VALID,21.1087,VALID,136,VALID,0,
2013-02-02, 02:06:05,VALID,917.341,VALID,0,VALID,87.4863,VALID,0,VALID,21.1087,VALID,150,VALID,0,
2013-02-02, 02:07:05,VALID,917.363,VALID,0,VALID,87.593,VALID,0,VALID,21.0697,VALID,144,VALID,0,
2013-02-02, 02:08:05,VALID,917.335,VALID,0,VALID,87.5626,VALID,0,VALID,21.0697,VALID,140,VALID,0,
2013-02-02, 02:09:05,VALID,917.336,VALID,0,VALID,87.6693,VALID,0,VALID,21.0697,VALID,150,VALID,0,
2013-02-02, 02:10:05,VALID,917.313,VALID,0,VALID,87.6235,VALID,0,VALID,21.0502,VALID,153,VALID,0,
2013-02-02, 02:11:05,VALID,917.315,VALID,0,VALID,87.7913,VALID,0,VALID,21.0291,VALID,161,VALID,0,
2013-02-02, 02:12:05,VALID,917.293,VALID,0,VALID,87.7379,VALID,0,VALID,21.0291,VALID,153,VALID,0,
2013-02-02, 02:13:05,VALID,917.297,VALID,0,VALID,87.7608,VALID,0,VALID,21.0096,VALID,166,VALID,0,
2013-02-02, 02:14:05,VALID,917.293,VALID,0,VALID,87.7455,VALID,0,VALID,21.0502,VALID,125,VALID,0,
2013-02-02, 02:15:05,VALID,917.293,VALID,0,VALID,87.8599,VALID,0,VALID,20.9901,VALID,149,VALID,0,
2013-02-02, 02:16:05,VALID,917.301,VALID,0,VALID,87.9971,VALID,0,VALID,20.9917,VALID,121,VALID,0,
2013-02-02, 02:17:05,VALID,917.242,VALID,0,VALID,87.8599,VALID,0,VALID,20.9706,VALID,117,VALID,0,
2013-02-02, 02:18:05,VALID,917.286,VALID,0,VALID,87.6617,VALID,0.107441,VALID,21.0096,VALID,154,VALID,0,
2013-02-02, 02:19:05,VALID,917.317,VALID,0,VALID,87.6007,VALID,0,VALID,21.0307,VALID,144,VALID,0,
2013-02-02, 02:20:05,VALID,917.325,VALID,0,VALID,87.5473,VALID,0,VALID,21.0096,VALID,170,VALID,0,
2013-02-02, 02:21:05,VALID,917.342,VALID,0,VALID,87.5549,VALID,0,VALID,21.0291,VALID,164,VALID,0,
2013-02-02, 02:22:05,VALID,917.319,VALID,0,VALID,87.3034,VALID,0,VALID,21.0697,VALID,165,VALID,0,
2013-02-02, 02:23:05,VALID,917.324,VALID,0,VALID,87.2729,VALID,0,VALID,21.0697,VALID,166,VALID,0,
2013-02-02, 02:24:05,VALID,917.275,VALID,0,VALID,87.1356,VALID,0,VALID,21.0681,VALID,162,VALID,0,
2013-02-02, 02:25:05,VALID,917.24,VALID,0,VALID,86.8764,VALID,0,VALID,21.1087,VALID,149,VALID,0,
2013-02-02, 02:26:05,VALID,917.203,VALID,0,VALID,86.663,VALID,0,VALID,21.1478,VALID,133,VALID,0,
2013-02-02, 02:27:05,VALID,917.176,VALID,0,VALID,86.4343,VALID,0,VALID,21.1673,VALID,122,VALID,0,
2013-02-02, 02:28:05,VALID,917.146,VALID,0,VALID,86.419,VALID,0,VALID,21.1461,VALID,134,VALID,0,
2013-02-02, 02:29:05,VALID,917.114,VALID,0,VALID,86.5105,VALID,0,VALID,21.1266,VALID,116,VALID,0,
2013-02-02, 02:30:05,VALID,917.116,VALID,0,VALID,86.5182,VALID,0,VALID,21.1282,VALID,122,VALID,0,
2013-02-02, 02:31:05,VALID,917.123,VALID,0,VALID,86.6859,VALID,0,VALID,21.0681,VALID,97,VALID,0,
2013-02-02, 02:32:05,VALID,917.13,VALID,0,VALID,86.6935,VALID,0,VALID,21.0486,VALID,171,VALID,0,
2013-02-02, 02:33:05,VALID,917.158,VALID,0,VALID,86.6706,VALID,0,VALID,21.0486,VALID,162,VALID,0,
2013-02-02, 02:34:05,VALID,917.152,VALID,0,VALID,86.663,VALID,0,VALID,21.0681,VALID,145,VALID,0,
2013-02-02, 02:35:05,VALID,917.129,VALID,0,VALID,86.7773,VALID,0,VALID,21.0697,VALID,142,VALID,0,
2013-02-02, 02:36:05,VALID,917.118,VALID,0,VALID,86.5486,VALID,0,VALID,21.0681,VALID,149,VALID,0,
2013-02-02, 02:37:05,VALID,917.077,VALID,0,VALID,86.3657,VALID,0,VALID,21.1087,VALID,140,VALID,0,
2013-02-02, 02:38:05,VALID,917.062,VALID,0,VALID,86.3885,VALID,0,VALID,21.1478,VALID,119,VALID,0,
2013-02-02, 02:39:05,VALID,917.06,VALID,0,VALID,86.4267,VALID,0,VALID,21.1282,VALID,123,VALID,0,
2013-02-02, 02:40:05,VALID,917.036,VALID,0,VALID,86.4038,VALID,0,VALID,21.1282,VALID,126,VALID,0,
2013-02-02, 02:41:05,VALID,917.013,VALID,0,VALID,86.2894,VALID,0,VALID,21.1071,VALID,138,VALID,0,
2013-02-02, 02:42:05,VALID,917.035,VALID,0,VALID,86.2361,VALID,0,VALID,21.1461,VALID,122,VALID,0,
2013-02-02, 02:43:04,VALID,917.038,VALID,0,VALID,86.0226,VALID,0,VALID,21.1461,VALID,105,VALID,0,
2013-02-02, 02:44:04,VALID,917.044,VALID,0,VALID,86.076,VALID,0,VALID,21.1868,VALID,122,VALID,0,
2013-02-02, 02:45:04,VALID,917.03,VALID,0,VALID,86.1065,VALID,0,VALID,21.1657,VALID,141,VALID,0,
2013-02-02, 02:46:04,VALID,917.008,VALID,0,VALID,86.1827,VALID,0,VALID,21.1673,VALID,134,VALID,0,
2013-02-02, 02:47:04,VALID,916.997,VALID,0,VALID,86.3352,VALID,0,VALID,21.1461,VALID,101,VALID,0,
2013-02-02, 02:48:04,VALID,916.948,VALID,0,VALID,86.4267,VALID,0,VALID,21.1071,VALID,105,VALID,0,
2013-02-02, 02:49:04,VALID,916.921,VALID,0,VALID,86.4953,VALID,0,VALID,21.0486,VALID,119,VALID,0,
2013-02-02, 02:50:04,VALID,916.882,VALID,0,VALID,86.6554,VALID,0,VALID,21.0486,VALID,113,VALID,0,
2013-02-02, 02:51:04,VALID,916.858,VALID,0,VALID,86.8383,VALID,0,VALID,21.0096,VALID,134,VALID,0,
2013-02-02, 02:52:04,VALID,916.825,VALID,0,VALID,87.0365,VALID,0,VALID,20.9917,VALID,106,VALID,0,
2013-02-02, 02:53:04,VALID,916.815,VALID,0,VALID,87.311,VALID,0,VALID,20.9316,VALID,114,VALID,0,
2013-02-02, 02:54:04,VALID,916.835,VALID,0,VALID,87.4482,VALID,0,VALID,20.9331,VALID,137,VALID,0,
2013-02-02, 02:55:04,VALID,916.834,VALID,0,VALID,87.6693,VALID,0,VALID,20.8925,VALID,127,VALID,0,
2013-02-02, 02:56:04,VALID,916.827,VALID,0,VALID,87.9209,VALID,0,VALID,20.8746,VALID,136,VALID,0,
2013-02-02, 02:57:04,VALID,916.862,VALID,0,VALID,87.9437,VALID,0,VALID,20.8551,VALID,136,VALID,0,
2013-02-02, 02:58:04,VALID,916.831,VALID,0,VALID,88.0352,VALID,0,VALID,20.8551,VALID,143,VALID,0,
2013-02-02, 02:59:04,VALID,916.821,VALID,0,VALID,88.0428,VALID,0,VALID,20.8356,VALID,144,VALID,0,
2013-02-02, 03:00:04,VALID,916.802,VALID,0,VALID,88.0352,VALID,0,VALID,20.8161,VALID,143,VALID,0,
2013-02-02, 03:01:04,VALID,916.812,VALID,0,VALID,88.1191,VALID,0,VALID,20.795,VALID,144,VALID,0,
2013-02-02, 03:02:04,VALID,916.833,VALID,0,VALID,88.1572,VALID,0,VALID,20.7755,VALID,148,VALID,0,
2013-02-02, 03:03:04,VALID,916.845,VALID,0,VALID,88.2258,VALID,0,VALID,20.756,VALID,150,VALID,0,
2013-02-02, 03:04:04,VALID,916.824,VALID,0,VALID,88.2715,VALID,0,VALID,20.7576,VALID,158,VALID,0,
2013-02-02, 03:05:04,VALID,916.862,VALID,0,VALID,88.2792,VALID,0,VALID,20.756,VALID,155,VALID,0,
2013-02-02, 03:06:04,VALID,916.874,VALID,0,VALID,88.1801,VALID,0,VALID,20.7576,VALID,181,VALID,0,
2013-02-02, 03:07:04,VALID,916.903,VALID,0,VALID,88.1267,VALID,0,VALID,20.7966,VALID,162,VALID,0,
2013-02-02, 03:08:04,VALID,916.927,VALID,0,VALID,88.0047,VALID,0,VALID,20.8161,VALID,163,VALID,0,
2013-02-02, 03:09:04,VALID,916.932,VALID,0,VALID,87.9209,VALID,0,VALID,20.8145,VALID,150,VALID,0,
2013-02-02, 03:10:04,VALID,916.906,VALID,0,VALID,87.7684,VALID,0,VALID,20.8551,VALID,148,VALID,0,
2013-02-02, 03:11:04,VALID,916.908,VALID,0,VALID,87.8065,VALID,0,VALID,20.8535,VALID,176,VALID,0,
2013-02-02, 03:12:04,VALID,916.913,VALID,0,VALID,87.8522,VALID,0,VALID,20.873,VALID,143,VALID,0,
2013-02-02, 03:13:04,VALID,916.873,VALID,0,VALID,87.7303,VALID,0,VALID,20.8746,VALID,164,VALID,0,
2013-02-02, 03:14:04,VALID,916.807,VALID,0,VALID,87.776,VALID,0,VALID,20.8746,VALID,176,VALID,0,
2013-02-02, 03:15:04,VALID,916.78,VALID,0,VALID,87.4482,VALID,0,VALID,20.8535,VALID,185,VALID,0,
2013-02-02, 03:16:04,VALID,916.708,VALID,0,VALID,87.2347,VALID,0,VALID,20.9527,VALID,160,VALID,0,
2013-02-02, 03:17:04,VALID,916.697,VALID,0,VALID,87.0518,VALID,0,VALID,20.9722,VALID,147,VALID,0,
2013-02-02, 03:18:04,VALID,916.68,VALID,0,VALID,87.2119,VALID,0,VALID,20.9527,VALID,146,VALID,0,
2013-02-02, 03:19:04,VALID,916.678,VALID,0,VALID,87.1433,VALID,0,VALID,20.912,VALID,126,VALID,0,
2013-02-02, 03:20:04,VALID,916.678,VALID,0,VALID,87.2271,VALID,0,VALID,20.8925,VALID,114,VALID,0,
2013-02-02, 03:21:04,VALID,916.669,VALID,0,VALID,87.433,VALID,0,VALID,20.873,VALID,130,VALID,0,
2013-02-02, 03:22:04,VALID,916.671,VALID,0,VALID,87.5854,VALID,0,VALID,20.8356,VALID,157,VALID,0,
2013-02-02, 03:23:04,VALID,916.703,VALID,0,VALID,87.6922,VALID,0,VALID,20.795,VALID,136,VALID,0,
2013-02-02, 03:24:04,VALID,916.755,VALID,0,VALID,87.7531,VALID,0,VALID,20.8161,VALID,122,VALID,0,
2013-02-02, 03:25:04,VALID,916.789,VALID,0,VALID,87.8522,VALID,0,VALID,20.7966,VALID,132,VALID,0,
2013-02-02, 03:26:04,VALID,916.799,VALID,0,VALID,87.7379,VALID,0,VALID,20.8161,VALID,124,VALID,0,
2013-02-02, 03:27:04,VALID,916.776,VALID,0,VALID,87.6388,VALID,0,VALID,20.8551,VALID,122,VALID,0,
2013-02-02, 03:28:04,VALID,916.825,VALID,0,VALID,87.4787,VALID,0,VALID,20.8551,VALID,145,VALID,0,
2013-02-02, 03:29:04,VALID,916.847,VALID,0,VALID,87.5702,VALID,0,VALID,20.8535,VALID,169,VALID,0,
2013-02-02, 03:30:04,VALID,916.83,VALID,0,VALID,87.5016,VALID,0,VALID,20.8941,VALID,148,VALID,0,
2013-02-02, 03:31:04,VALID,916.827,VALID,0,VALID,87.2119,VALID,0,VALID,20.8925,VALID,173,VALID,0,
2013-02-02, 03:32:04,VALID,916.857,VALID,0,VALID,87.1509,VALID,0,VALID,20.9527,VALID,164,VALID,0,
2013-02-02, 03:33:04,VALID,916.837,VALID,0,VALID,86.9222,VALID,0,VALID,20.9917,VALID,152,VALID,0,
2013-02-02, 03:34:04,VALID,916.819,VALID,0,VALID,86.8078,VALID,0,VALID,21.0307,VALID,140,VALID,0,
2013-02-02, 03:35:04,VALID,916.837,VALID,0,VALID,86.8993,VALID,0,VALID,21.0112,VALID,162,VALID,0,
2013-02-02, 03:36:04,VALID,916.788,VALID,0,VALID,86.7392,VALID,0,VALID,21.0112,VALID,165,VALID,0,
2013-02-02, 03:37:04,VALID,916.794,VALID,0,VALID,86.7392,VALID,0,VALID,20.9901,VALID,130,VALID,0,
2013-02-02, 03:38:04,VALID,916.777,VALID,0,VALID,86.785,VALID,0,VALID,21.0112,VALID,128,VALID,0,
2013-02-02, 03:39:04,VALID,916.779,VALID,0,VALID,86.8383,VALID,0,VALID,20.9917,VALID,144,VALID,0,
2013-02-02, 03:40:04,VALID,916.78,VALID,0,VALID,86.9298,VALID,0,VALID,20.9722,VALID,128,VALID,0,
2013-02-02, 03:41:04,VALID,916.726,VALID,0,VALID,86.9146,VALID,0,VALID,20.9722,VALID,140,VALID,0,
2013-02-02, 03:42:04,VALID,916.727,VALID,0,VALID,87.0365,VALID,0,VALID,20.9316,VALID,172,VALID,0,
2013-02-02, 03:43:04,VALID,916.744,VALID,0,VALID,87.1814,VALID,0,VALID,20.9136,VALID,132,VALID,0,
2013-02-02, 03:44:04,VALID,916.755,VALID,0,VALID,87.2271,VALID,0,VALID,20.9136,VALID,175,VALID,0,
2013-02-02, 03:45:04,VALID,916.787,VALID,0,VALID,87.2881,VALID,0,VALID,20.8941,VALID,174,VALID,0,
2013-02-02, 03:46:04,VALID,916.854,VALID,0,VALID,87.5549,VALID,0,VALID,20.8941,VALID,143,VALID,0,
2013-02-02, 03:47:04,VALID,916.879,VALID,0,VALID,87.6998,VALID,0,VALID,20.8356,VALID,175,VALID,0,
2013-02-02, 03:48:04,VALID,916.886,VALID,0,VALID,87.5702,VALID,0,VALID,20.8356,VALID,167,VALID,0,
2013-02-02, 03:49:04,VALID,916.912,VALID,0,VALID,87.5168,VALID,0,VALID,20.8941,VALID,135,VALID,0,
2013-02-02, 03:50:04,VALID,916.972,VALID,0,VALID,87.5473,VALID,0,VALID,20.873,VALID,182,VALID,0,
2013-02-02, 03:51:04,VALID,916.941,VALID,0,VALID,87.6998,VALID,0,VALID,20.8551,VALID,169,VALID,0,
2013-02-02, 03:52:04,VALID,916.94,VALID,0,VALID,87.6388,VALID,0,VALID,20.8941,VALID,168,VALID,0,
2013-02-02, 03:53:04,VALID,916.943,VALID,0,VALID,87.7684,VALID,0,VALID,20.873,VALID,177,VALID,0,
2013-02-02, 03:54:04,VALID,916.938,VALID,0,VALID,87.8446,VALID,0,VALID,20.8746,VALID,165,VALID,0,
2013-02-02, 03:55:04,VALID,916.894,VALID,0,VALID,87.9209,VALID,0,VALID,20.8746,VALID,172,VALID,0,
2013-02-02, 03:56:04,VALID,916.885,VALID,0,VALID,87.9513,VALID,0,VALID,20.8746,VALID,154,VALID,0,
2013-02-02, 03:57:04,VALID,916.9,VALID,0,VALID,87.898,VALID,0,VALID,20.8551,VALID,113,VALID,0,
2013-02-02, 03:58:04,VALID,916.896,VALID,0,VALID,87.8904,VALID,0,VALID,20.834,VALID,148,VALID,0,